Location: Derby
(52.9213°N, 1.4761°W)
Time: 15:32:16
(UTC+01:00)

Vanguard 1 - Pass Details

Date: 20 May 2025
Orbit: 649 x 3822 km, 34.3° (Epoch: 14 June)

Event Time Altitude Azimuth Distance (km) Brightness Sun altitude
Rises 16:00:14 0° 195° (SSW) 7,827 15.1 42.7°
Reaches altitude 10° 16:09:07 10° 179° (S) 6,421 14.6 41.5°
Maximum altitude 16:18:46 16° 149° (SSE) 5,226 13.8 40.2°
Drops below altitude 10° 16:26:28 10° 118° (ESE) 5,007 13.4 39.1°
Sets 16:31:45 0° 98° (E) 5,424 13.4 38.4°
